TimeCST,TemperatureF,Dew PointF,Humidity,Sea Level PressureIn,VisibilityMPH,Wind Direction,Wind SpeedMPH,Gust SpeedMPH,PrecipitationIn,Events,Conditions,WindDirDegrees,DateUTC
12:51 AM,41.0,14.0,33,30.33,10.0,SW,10.4,-,N/A,,Clear,220,2012-12-22 06:51:00
1:51 AM,39.9,15.1,36,30.32,10.0,SSW,10.4,-,N/A,,Clear,210,2012-12-22 07:51:00
2:51 AM,39.9,14.0,35,30.31,10.0,SSW,11.5,-,N/A,,Clear,200,2012-12-22 08:51:00
3:51 AM,37.4,15.8,41,30.30,10.0,SSW,4.6,-,N/A,,Clear,200,2012-12-22 09:51:00
4:51 AM,34.0,16.0,48,30.30,10.0,SSW,6.9,-,N/A,,Clear,200,2012-12-22 10:51:00
5:51 AM,33.1,18.0,54,30.31,10.0,SSW,9.2,-,N/A,,Clear,200,2012-12-22 11:51:00
6:51 AM,36.0,18.0,48,30.32,10.0,South,6.9,-,N/A,,Clear,190,2012-12-22 12:51:00
7:51 AM,37.0,19.9,50,30.33,10.0,SSE,3.5,-,N/A,,Clear,150,2012-12-22 13:51:00
8:51 AM,45.0,24.1,44,30.32,10.0,SSE,5.8,-,N/A,,Clear,160,2012-12-22 14:51:00
9:51 AM,54.0,33.1,45,30.31,10.0,SSW,13.8,-,N/A,,Clear,200,2012-12-22 15:51:00
10:51 AM,60.1,39.9,47,30.30,10.0,South,12.7,21.9,N/A,,Clear,180,2012-12-22 16:51:00
11:51 AM,64.0,41.0,43,30.27,10.0,SSW,24.2,33.4,N/A,,Clear,210,2012-12-22 17:51:00
12:51 PM,64.9,39.0,39,30.21,10.0,SSW,19.6,-,N/A,,Clear,210,2012-12-22 18:51:00
1:51 PM,68.0,42.1,39,30.17,10.0,SSW,16.1,26.5,N/A,,Clear,200,2012-12-22 19:51:00
2:51 PM,66.9,42.1,40,30.14,10.0,SSW,21.9,28.8,N/A,,Clear,200,2012-12-22 20:51:00
3:51 PM,66.9,42.1,40,30.13,10.0,South,19.6,27.6,N/A,,Mostly Cloudy,190,2012-12-22 21:51:00
4:51 PM,64.9,43.0,45,30.12,10.0,SSW,13.8,-,N/A,,Clear,200,2012-12-22 22:51:00
5:51 PM,63.0,44.1,50,30.11,10.0,South,10.4,-,N/A,,Scattered Clouds,180,2012-12-22 23:51:00
6:51 PM,62.1,46.0,56,30.10,10.0,South,9.2,-,N/A,,Partly Cloudy,180,2012-12-23 00:51:00
7:51 PM,62.1,46.0,56,30.09,10.0,South,11.5,-,N/A,,Clear,170,2012-12-23 01:51:00
8:51 PM,60.8,46.4,59,30.10,10.0,South,9.2,-,N/A,,Overcast,180,2012-12-23 02:51:00
9:51 PM,60.1,46.9,62,30.08,10.0,South,11.5,-,N/A,,Mostly Cloudy,170,2012-12-23 03:51:00
10:51 PM,59.0,48.0,67,30.07,10.0,South,11.5,-,N/A,,Clear,180,2012-12-23 04:51:00
11:51 PM,59.0,48.9,69,30.05,10.0,South,9.2,-,N/A,,Clear,180,2012-12-23 05:51:00